loading
|
Showing default

HAWK-3B, 48931

Orbit data source: Space-Track

HAWK-3B, 48931 is a payload satellite owned by HawkEye 360 (US) in LEO that was launched on Wed, 30 Jun 2021 UTC via an FALCON 9 launch vehicle from the Air Force Eastern Test Range (AFETR). Payloads include a variety of satellites, spacecraft, and rockets equipped with specific instruments for various scientific and technological missions. These include communications satellites like Starlink; space stations such as the ISS; scientific satellites like the Hubble; Earth observation satellites from companies like Planet Labs, Umbra, and HawkEye 360; GPS; miniature CubeSats for education and research; and military/defense satellites.

Loading next visibility...
Loading greatness...
HAWK-3B details
Identifier
48931, 2021-059BE
Orbit
LEO
Last TLE update9 hours ago
Origin
Flag of USHawkEye 360 (US)
ManufacturerUTIAS-SFL
Mission statusOperational
MissionCommercial Sigint
Bus & MotorDEFIANT, Unknown motor
Mass31 kg wet, 30 kg dry
Launch date (UTC)
2021-06-30 (3 years ago)
Launch vehicle
FALCON 9
Launch site
Air Force Eastern Test Range (AFETR)
Object type
Payload
Rocket body
Debris
Radar Cross SectionMedium (>0.1 m² and <1 m²)

Expand to show TLE details & history

TLE from 9 hours ago
0 HAWK-3B
1 48931U 21059BE  24261.57911862  .00054177  00000-0  17345-2 0  9992
2 48931  97.6406  48.4224 0011691 116.3421 243.9022 15.32141071179160
Epoch: 2024-09-17T13:53Z
Definitive object data (Epoch: 2024-09-17T13:53:55.848Z)
Latitude-0.00004°
Longitude-157.05205°
Altitude476.055 km
Speed7.626 km/s
True Right ascension03h 13m 41s
True Declination0° 00' 00"
Sunlit
Object was in full shadow at TLE epoch
Predictive object data (real-time)
Latitude-76.04295°
Longitude-9.13284°
Altitude503.176 km
Speed7.608 km/s
Apparent Right ascension04h 45m 03s
Apparent Declination-70° 44' 11"
Sunlit
Object is in daylight
Predictive observer data (real-time)
Local Sidereal Time15:40:28
Azimuth189.993° SSW
Elevation-58.081°
Doppler factor1
Orbital elements
Apogee474.387 km
Perigee458.383 km
Semi-major axis6,844.522 km
Eccentricity0.0011691
Inclination97.6406°
RAAN48.4224°
Arg. of periapsis116.3421°
True anomaly243.78197°
Mean anomaly243.9022°
Eccentric anomaly243.84208°
Mean motion3.83291 °/min
BSTAR0.0017345
Period93.92 mins
No data available

HAWK-3B Visibility forecast

Observer location: 39.9160978°, -105.1181434

HAWK-3B is not visible in the next 10 days
Span
Click to sort rows by Start time (UTC) header in descending order
Start Az.
Max El. time (UTC)
Max El. Az.
Max El.
End time (UTC)
End Az.